Time,TemperatureF,DewpointF,PressureIn,WindDirection,WindDirectionDegrees,WindSpeedMPH,WindSpeedGustMPH,Humidity,HourlyPrecipIn,Conditions,Clouds,dailyrainin,SoftwareType,DateUTC
2013-12-29 00:02:00,55.9,33.0,30.33,NE,45,4.0,5.0,42,0.00,,,0.00,Rainwise IP-100,2013-12-29 08:02:00,
2013-12-29 00:07:00,55.9,33.0,30.33,NE,45,4.9,5.0,42,0.00,,,0.00,Rainwise IP-100,2013-12-29 08:07:00,
2013-12-29 00:12:00,55.7,33.0,30.33,NE,45,3.5,6.0,42,0.00,,,0.00,Rainwise IP-100,2013-12-29 08:12:00,
2013-12-29 00:17:00,55.3,32.0,30.33,NNE,22,1.9,4.0,42,0.00,,,0.00,Rainwise IP-100,2013-12-29 08:17:00,
2013-12-29 00:22:00,55.1,32.0,30.33,NE,45,2.6,6.0,42,0.00,,,0.00,Rainwise IP-100,2013-12-29 08:22:00,
2013-12-29 00:27:00,55.3,32.0,30.33,ENE,67,2.8,5.0,41,0.00,,,0.00,Rainwise IP-100,2013-12-29 08:27:00,
2013-12-29 00:32:00,55.6,32.0,30.33,NE,45,5.6,6.0,40,0.00,,,0.00,Rainwise IP-100,2013-12-29 08:32:00,
2013-12-29 00:37:00,56.0,32.0,30.33,ENE,67,1.6,6.0,40,0.00,,,0.00,Rainwise IP-100,2013-12-29 08:37:00,
2013-12-29 00:42:00,55.9,32.0,30.33,NE,45,2.6,4.0,40,0.00,,,0.00,Rainwise IP-100,2013-12-29 08:42:00,
2013-12-29 00:47:00,55.6,32.0,30.33,NE,45,0.0,3.0,40,0.00,,,0.00,Rainwise IP-100,2013-12-29 08:47:00,
2013-12-29 00:52:00,55.4,32.0,30.33,NE,45,1.6,4.0,40,0.00,,,0.00,Rainwise IP-100,2013-12-29 08:52:00,
2013-12-29 00:57:00,55.6,32.0,30.34,NE,45,1.6,5.0,40,0.00,,,0.00,Rainwise IP-100,2013-12-29 08:57:00,
2013-12-29 01:02:00,55.8,32.0,30.33,NE,45,6.1,6.1,39,0.00,,,0.00,Rainwise IP-100,2013-12-29 09:02:00,
2013-12-29 01:07:00,55.8,32.0,30.33,ENE,67,3.7,6.0,39,0.00,,,0.00,Rainwise IP-100,2013-12-29 09:07:00,
2013-12-29 01:12:00,55.8,32.0,30.33,NE,45,3.5,6.0,39,0.00,,,0.00,Rainwise IP-100,2013-12-29 09:12:00,
2013-12-29 01:17:00,55.8,32.0,30.33,NNE,22,4.0,4.0,39,0.00,,,0.00,Rainwise IP-100,2013-12-29 09:17:00,
2013-12-29 01:22:00,55.8,32.0,30.33,East,90,2.6,6.0,39,0.00,,,0.00,Rainwise IP-100,2013-12-29 09:22:00,
2013-12-29 01:27:00,55.6,32.0,30.33,NE,45,5.6,7.0,39,0.00,,,0.00,Rainwise IP-100,2013-12-29 09:27:00,
2013-12-29 01:32:00,55.3,32.0,30.33,NE,45,6.1,7.0,40,0.00,,,0.00,Rainwise IP-100,2013-12-29 09:32:00,
2013-12-29 01:37:00,55.3,32.0,30.33,NE,45,6.8,8.0,41,0.00,,,0.00,Rainwise IP-100,2013-12-29 09:37:00,
2013-12-29 01:42:00,55.4,32.0,30.33,NNE,22,4.9,9.0,41,0.00,,,0.00,Rainwise IP-100,2013-12-29 09:42:00,
2013-12-29 01:47:00,55.5,32.0,30.33,ENE,67,2.8,7.0,41,0.00,,,0.00,Rainwise IP-100,2013-12-29 09:47:00,
2013-12-29 01:52:00,55.6,32.0,30.34,NNE,22,3.5,6.0,40,0.00,,,0.00,Rainwise IP-100,2013-12-29 09:52:00,
2013-12-29 01:57:00,55.2,32.0,30.33,NNE,22,5.4,6.0,40,0.00,,,0.00,Rainwise IP-100,2013-12-29 09:57:00,
2013-12-29 02:02:00,54.8,31.0,30.34,NE,45,1.9,7.0,40,0.00,,,0.00,Rainwise IP-100,2013-12-29 10:02:00,
2013-12-29 02:07:00,53.9,31.0,30.33,ENE,67,1.6,3.0,41,0.00,,,0.00,Rainwise IP-100,2013-12-29 10:07:00,
2013-12-29 02:12:00,52.9,31.0,30.33,NE,45,2.1,5.0,43,0.00,,,0.00,Rainwise IP-100,2013-12-29 10:12:00,
2013-12-29 02:17:00,52.4,31.0,30.33,NE,45,3.3,6.0,44,0.00,,,0.00,Rainwise IP-100,2013-12-29 10:17:00,
2013-12-29 02:22:00,52.1,31.0,30.33,ENE,67,2.1,4.0,44,0.00,,,0.00,Rainwise IP-100,2013-12-29 10:22:00,
2013-12-29 02:27:00,52.0,32.0,30.33,ENE,67,2.3,4.0,45,0.00,,,0.00,Rainwise IP-100,2013-12-29 10:27:00,
2013-12-29 02:32:00,51.8,32.0,30.34,NE,45,1.9,5.0,47,0.00,,,0.00,Rainwise IP-100,2013-12-29 10:32:00,
2013-12-29 02:37:00,51.7,32.0,30.33,ENE,67,1.4,4.0,47,0.00,,,0.00,Rainwise IP-100,2013-12-29 10:37:00,
2013-12-29 02:42:00,51.7,33.0,30.33,ENE,67,1.2,2.0,48,0.00,,,0.00,Rainwise IP-100,2013-12-29 10:42:00,
2013-12-29 02:47:00,51.5,33.0,30.34,ENE,67,0.0,1.0,48,0.00,,,0.00,Rainwise IP-100,2013-12-29 10:47:00,
2013-12-29 02:52:00,51.4,32.0,30.33,NNE,22,1.6,4.0,48,0.00,,,0.00,Rainwise IP-100,2013-12-29 10:52:00,
2013-12-29 02:57:00,51.8,33.0,30.33,NE,45,3.3,5.0,49,0.00,,,0.00,Rainwise IP-100,2013-12-29 10:57:00,
2013-12-29 03:02:00,52.3,33.0,30.33,NNE,22,1.4,4.0,48,0.00,,,0.00,Rainwise IP-100,2013-12-29 11:02:00,
2013-12-29 03:07:00,52.5,33.0,30.34,NNE,22,2.3,5.0,48,0.00,,,0.00,Rainwise IP-100,2013-12-29 11:07:00,
2013-12-29 03:12:00,52.7,33.0,30.34,North,360,3.7,5.0,48,0.00,,,0.00,Rainwise IP-100,2013-12-29 11:12:00,
2013-12-29 03:17:00,53.1,33.0,30.33,ENE,67,2.6,7.0,47,0.00,,,0.00,Rainwise IP-100,2013-12-29 11:17:00,
2013-12-29 03:22:00,53.4,33.0,30.33,NE,45,2.8,7.0,47,0.00,,,0.00,Rainwise IP-100,2013-12-29 11:22:00,
2013-12-29 03:27:00,53.4,33.0,30.34,NE,45,3.5,6.0,47,0.00,,,0.00,Rainwise IP-100,2013-12-29 11:27:00,
2013-12-29 03:32:00,53.4,33.0,30.33,North,360,2.1,4.0,47,0.00,,,0.00,Rainwise IP-100,2013-12-29 11:32:00,
2013-12-29 03:37:00,53.2,32.0,30.33,NNE,22,3.3,4.0,46,0.00,,,0.00,Rainwise IP-100,2013-12-29 11:37:00,
2013-12-29 03:42:00,53.1,32.0,30.33,NNE,22,3.7,6.0,46,0.00,,,0.00,Rainwise IP-100,2013-12-29 11:42:00,
2013-12-29 03:47:00,53.5,32.0,30.33,NNE,22,3.5,6.0,45,0.00,,,0.00,Rainwise IP-100,2013-12-29 11:47:00,
2013-12-29 03:52:00,53.8,32.0,30.33,North,360,4.2,7.0,43,0.00,,,0.00,Rainwise IP-100,2013-12-29 11:52:00,
2013-12-29 03:57:00,54.0,32.0,30.32,NNE,22,3.3,7.0,43,0.00,,,0.00,Rainwise IP-100,2013-12-29 11:57:00,
2013-12-29 04:02:00,54.1,32.0,30.33,NE,45,7.7,7.7,43,0.00,,,0.00,Rainwise IP-100,2013-12-29 12:02:00,
2013-12-29 04:07:00,54.1,32.0,30.33,NE,45,6.5,7.0,43,0.00,,,0.00,Rainwise IP-100,2013-12-29 12:07:00,
2013-12-29 04:12:00,53.8,32.0,30.33,ENE,67,2.6,7.0,43,0.00,,,0.00,Rainwise IP-100,2013-12-29 12:12:00,
2013-12-29 04:17:00,53.6,32.0,30.33,NNE,22,5.1,8.0,43,0.00,,,0.00,Rainwise IP-100,2013-12-29 12:17:00,
2013-12-29 04:22:00,53.7,31.0,30.34,ENE,67,3.3,9.0,42,0.00,,,0.00,Rainwise IP-100,2013-12-29 12:22:00,
2013-12-29 04:27:00,53.6,31.0,30.34,ENE,67,4.7,11.0,42,0.00,,,0.00,Rainwise IP-100,2013-12-29 12:27:00,
2013-12-29 04:32:00,53.4,32.0,30.33,ENE,67,3.0,9.0,43,0.00,,,0.00,Rainwise IP-100,2013-12-29 12:32:00,
2013-12-29 04:37:00,53.3,31.0,30.34,NNE,22,6.3,8.0,43,0.00,,,0.00,Rainwise IP-100,2013-12-29 12:37:00,
2013-12-29 04:42:00,53.2,31.0,30.33,ENE,67,2.6,7.0,43,0.00,,,0.00,Rainwise IP-100,2013-12-29 12:42:00,
2013-12-29 04:47:00,52.9,32.0,30.33,NE,45,6.1,7.0,44,0.00,,,0.00,Rainwise IP-100,2013-12-29 12:47:00,
2013-12-29 04:52:00,52.7,32.0,30.33,ENE,67,5.4,7.0,45,0.00,,,0.00,Rainwise IP-100,2013-12-29 12:52:00,
2013-12-29 04:57:00,52.7,32.0,30.33,ENE,67,2.8,7.0,46,0.00,,,0.00,Rainwise IP-100,2013-12-29 12:57:00,
2013-12-29 05:02:00,52.4,32.0,30.34,North,360,4.9,6.0,47,0.00,,,0.00,Rainwise IP-100,2013-12-29 13:02:00,
2013-12-29 05:07:00,52.0,33.0,30.33,North,360,4.0,8.0,48,0.00,,,0.00,Rainwise IP-100,2013-12-29 13:07:00,
2013-12-29 05:12:00,51.8,33.0,30.33,East,90,4.4,8.0,49,0.00,,,0.00,Rainwise IP-100,2013-12-29 13:12:00,
2013-12-29 05:17:00,51.9,33.0,30.34,NNE,22,4.7,8.0,48,0.00,,,0.00,Rainwise IP-100,2013-12-29 13:17:00,
2013-12-29 05:22:00,52.0,33.0,30.34,NNE,22,3.0,5.0,48,0.00,,,0.00,Rainwise IP-100,2013-12-29 13:22:00,
2013-12-29 05:27:00,51.9,32.0,30.34,NE,45,4.0,7.0,47,0.00,,,0.00,Rainwise IP-100,2013-12-29 13:27:00,
2013-12-29 05:32:00,51.9,32.0,30.33,ESE,112,2.6,6.0,46,0.00,,,0.00,Rainwise IP-100,2013-12-29 13:32:00,
2013-12-29 05:37:00,51.9,32.0,30.33,NE,45,3.7,5.0,45,0.00,,,0.00,Rainwise IP-100,2013-12-29 13:37:00,
2013-12-29 05:42:00,51.9,31.0,30.33,NE,45,4.9,7.0,44,0.00,,,0.00,Rainwise IP-100,2013-12-29 13:42:00,
2013-12-29 05:47:00,51.9,31.0,30.33,NE,45,4.4,6.0,44,0.00,,,0.00,Rainwise IP-100,2013-12-29 13:47:00,
2013-12-29 05:52:00,51.9,31.0,30.34,East,90,1.4,5.0,43,0.00,,,0.00,Rainwise IP-100,2013-12-29 13:52:00,
2013-12-29 05:57:00,51.9,31.0,30.33,ENE,67,1.9,5.0,43,0.00,,,0.00,Rainwise IP-100,2013-12-29 13:57:00,
2013-12-29 06:02:00,51.7,29.0,30.34,NE,45,4.0,6.0,42,0.00,,,0.00,Rainwise IP-100,2013-12-29 14:02:00,
2013-12-29 06:07:00,51.9,29.0,30.34,NE,45,4.9,6.0,42,0.00,,,0.00,Rainwise IP-100,2013-12-29 14:07:00,
2013-12-29 06:12:00,52.1,29.0,30.34,NE,45,3.7,6.0,41,0.00,,,0.00,Rainwise IP-100,2013-12-29 14:12:00,
2013-12-29 06:17:00,52.1,29.0,30.34,NE,45,3.3,7.0,40,0.00,,,0.00,Rainwise IP-100,2013-12-29 14:17:00,
2013-12-29 06:22:00,51.8,29.0,30.34,NNE,22,4.0,5.0,40,0.00,,,0.00,Rainwise IP-100,2013-12-29 14:22:00,
2013-12-29 06:27:00,51.6,29.0,30.34,NNE,22,2.3,6.0,41,0.00,,,0.00,Rainwise IP-100,2013-12-29 14:27:00,
2013-12-29 06:32:00,51.4,29.0,30.34,NNE,22,3.5,5.0,41,0.00,,,0.00,Rainwise IP-100,2013-12-29 14:32:00,
2013-12-29 06:37:00,51.4,29.0,30.34,East,90,5.8,5.8,41,0.00,,,0.00,Rainwise IP-100,2013-12-29 14:37:00,
2013-12-29 06:42:00,51.5,29.0,30.34,NE,45,3.7,7.0,41,0.00,,,0.00,Rainwise IP-100,2013-12-29 14:42:00,
2013-12-29 06:47:00,51.9,28.0,30.34,NNE,22,2.6,7.0,39,0.00,,,0.00,Rainwise IP-100,2013-12-29 14:47:00,
2013-12-29 06:52:00,52.0,28.0,30.34,NNE,22,3.7,7.0,39,0.00,,,0.00,Rainwise IP-100,2013-12-29 14:52:00,
2013-12-29 06:57:00,51.8,28.0,30.34,ENE,67,2.8,7.0,39,0.00,,,0.00,Rainwise IP-100,2013-12-29 14:57:00,
2013-12-29 07:02:00,51.9,28.0,30.34,NE,45,5.1,6.0,39,0.00,,,0.00,Rainwise IP-100,2013-12-29 15:02:00,
2013-12-29 07:07:00,51.9,28.0,30.34,NE,45,4.4,7.0,39,0.00,,,0.00,Rainwise IP-100,2013-12-29 15:07:00,
2013-12-29 07:12:00,52.0,28.0,30.35,NE,45,9.1,9.1,39,0.00,,,0.00,Rainwise IP-100,2013-12-29 15:12:00,
2013-12-29 07:17:00,52.0,29.0,30.35,NE,45,6.1,9.0,40,0.00,,,0.00,Rainwise IP-100,2013-12-29 15:17:00,
2013-12-29 07:22:00,52.2,28.0,30.35,NE,45,5.8,10.0,39,0.00,,,0.00,Rainwise IP-100,2013-12-29 15:22:00,
2013-12-29 07:27:00,52.2,28.0,30.35,NNE,22,4.7,9.0,39,0.00,,,0.00,Rainwise IP-100,2013-12-29 15:27:00,
2013-12-29 07:32:00,52.4,28.0,30.35,NNE,22,7.5,9.0,39,0.00,,,0.00,Rainwise IP-100,2013-12-29 15:32:00,
2013-12-29 07:37:00,52.5,29.0,30.36,NE,45,6.5,9.0,39,0.00,,,0.00,Rainwise IP-100,2013-12-29 15:37:00,
2013-12-29 07:42:00,52.7,28.0,30.36,NNE,22,5.8,9.0,38,0.00,,,0.00,Rainwise IP-100,2013-12-29 15:42:00,
2013-12-29 07:47:00,52.9,28.0,30.36,NNE,22,5.8,10.0,38,0.00,,,0.00,Rainwise IP-100,2013-12-29 15:47:00,
2013-12-29 07:52:00,53.2,28.0,30.36,NNE,22,5.8,9.0,37,0.00,,,0.00,Rainwise IP-100,2013-12-29 15:52:00,
2013-12-29 07:57:00,53.5,28.0,30.36,ENE,67,7.0,8.0,37,0.00,,,0.00,Rainwise IP-100,2013-12-29 15:57:00,
2013-12-29 08:02:00,53.7,28.0,30.36,NE,45,7.7,9.0,37,0.00,,,0.00,Rainwise IP-100,2013-12-29 16:02:00,
2013-12-29 08:07:00,53.8,28.0,30.36,NE,45,4.9,9.0,37,0.00,,,0.00,Rainwise IP-100,2013-12-29 16:07:00,
2013-12-29 08:12:00,53.8,29.0,30.37,ENE,67,4.4,10.0,38,0.00,,,0.00,Rainwise IP-100,2013-12-29 16:12:00,
2013-12-29 08:17:00,54.0,29.0,30.37,ENE,67,4.4,7.0,38,0.00,,,0.00,Rainwise IP-100,2013-12-29 16:17:00,
2013-12-29 08:22:00,54.2,29.0,30.38,NE,45,4.0,6.0,38,0.00,,,0.00,Rainwise IP-100,2013-12-29 16:22:00,
2013-12-29 08:27:00,54.4,29.0,30.38,ENE,67,2.8,7.0,38,0.00,,,0.00,Rainwise IP-100,2013-12-29 16:27:00,
2013-12-29 08:32:00,54.5,29.0,30.38,NE,45,4.7,9.0,38,0.00,,,0.00,Rainwise IP-100,2013-12-29 16:32:00,
2013-12-29 08:37:00,54.6,29.0,30.38,ESE,112,5.8,10.0,37,0.00,,,0.00,Rainwise IP-100,2013-12-29 16:37:00,
2013-12-29 08:42:00,54.9,29.0,30.38,NNE,22,6.1,10.0,36,0.00,,,0.00,Rainwise IP-100,2013-12-29 16:42:00,
2013-12-29 08:47:00,55.2,29.0,30.39,NE,45,6.5,11.0,36,0.00,,,0.00,Rainwise IP-100,2013-12-29 16:47:00,
2013-12-29 08:52:00,55.5,29.0,30.39,ENE,67,4.2,7.0,36,0.00,,,0.00,Rainwise IP-100,2013-12-29 16:52:00,
2013-12-29 08:57:00,56.0,29.0,30.39,East,90,1.9,9.0,35,0.00,,,0.00,Rainwise IP-100,2013-12-29 16:57:00,
2013-12-29 09:02:00,56.8,29.0,30.39,ESE,112,3.3,8.0,34,0.00,,,0.00,Rainwise IP-100,2013-12-29 17:02:00,
2013-12-29 09:07:00,57.4,29.0,30.39,NE,45,3.5,7.0,34,0.00,,,0.00,Rainwise IP-100,2013-12-29 17:07:00,
2013-12-29 09:12:00,57.8,29.0,30.39,NE,45,4.7,6.0,33,0.00,,,0.00,Rainwise IP-100,2013-12-29 17:12:00,
2013-12-29 09:17:00,58.1,31.0,30.39,ESE,112,2.6,5.0,34,0.00,,,0.00,Rainwise IP-100,2013-12-29 17:17:00,
2013-12-29 09:22:00,58.4,31.0,30.40,East,90,9.3,9.3,34,0.00,,,0.00,Rainwise IP-100,2013-12-29 17:22:00,
2013-12-29 09:27:00,58.6,31.0,30.40,East,90,7.0,9.0,34,0.00,,,0.00,Rainwise IP-100,2013-12-29 17:27:00,
2013-12-29 09:32:00,58.4,31.0,30.40,East,90,4.0,8.0,35,0.00,,,0.00,Rainwise IP-100,2013-12-29 17:32:00,
2013-12-29 09:37:00,58.4,31.0,30.40,SE,135,1.4,7.0,35,0.00,,,0.00,Rainwise IP-100,2013-12-29 17:37:00,
2013-12-29 09:42:00,58.8,32.0,30.40,East,90,5.6,7.0,35,0.00,,,0.00,Rainwise IP-100,2013-12-29 17:42:00,
2013-12-29 09:47:00,59.0,31.0,30.40,ENE,67,4.0,9.0,34,0.00,,,0.00,Rainwise IP-100,2013-12-29 17:47:00,
2013-12-29 09:52:00,59.0,29.0,30.40,ESE,112,4.0,9.0,32,0.00,,,0.00,Rainwise IP-100,2013-12-29 17:52:00,
2013-12-29 09:57:00,59.3,29.0,30.40,ENE,67,5.8,13.0,31,0.00,,,0.00,Rainwise IP-100,2013-12-29 17:57:00,
2013-12-29 10:02:00,59.5,28.0,30.40,East,90,4.9,12.0,30,0.00,,,0.00,Rainwise IP-100,2013-12-29 18:02:00,
2013-12-29 10:07:00,59.5,28.0,30.40,East,90,9.6,10.0,30,0.00,,,0.00,Rainwise IP-100,2013-12-29 18:07:00,
2013-12-29 10:12:00,59.6,28.0,30.41,ESE,112,8.4,10.0,29,0.00,,,0.00,Rainwise IP-100,2013-12-29 18:12:00,
2013-12-29 10:17:00,59.9,28.0,30.41,ENE,67,5.4,9.0,29,0.00,,,0.00,Rainwise IP-100,2013-12-29 18:17:00,
2013-12-29 10:22:00,60.4,28.0,30.40,South,180,0.0,12.0,28,0.00,,,0.00,Rainwise IP-100,2013-12-29 18:22:00,
2013-12-29 10:27:00,60.8,26.0,30.40,ESE,112,4.2,12.0,27,0.00,,,0.00,Rainwise IP-100,2013-12-29 18:27:00,
2013-12-29 10:32:00,61.2,28.0,30.40,ESE,112,6.8,12.0,27,0.00,,,0.00,Rainwise IP-100,2013-12-29 18:32:00,
2013-12-29 10:37:00,61.5,28.0,30.40,SSE,157,1.4,10.0,27,0.00,,,0.00,Rainwise IP-100,2013-12-29 18:37:00,
2013-12-29 10:42:00,61.9,28.0,30.40,East,90,5.1,12.0,26,0.00,,,0.00,Rainwise IP-100,2013-12-29 18:42:00,
2013-12-29 10:47:00,62.1,26.0,30.40,ESE,112,1.6,12.0,25,0.00,,,0.00,Rainwise IP-100,2013-12-29 18:47:00,
2013-12-29 10:52:00,62.4,26.0,30.40,ESE,112,3.7,14.0,24,0.00,,,0.00,Rainwise IP-100,2013-12-29 18:52:00,
2013-12-29 10:57:00,62.7,26.0,30.40,ENE,67,4.9,12.0,24,0.00,,,0.00,Rainwise IP-100,2013-12-29 18:57:00,
2013-12-29 11:02:00,63.0,24.0,30.40,South,180,0.0,13.0,23,0.00,,,0.00,Rainwise IP-100,2013-12-29 19:02:00,
2013-12-29 11:07:00,63.3,24.0,30.40,ESE,112,1.6,9.0,23,0.00,,,0.00,Rainwise IP-100,2013-12-29 19:07:00,
2013-12-29 11:12:00,63.8,24.0,30.40,ESE,112,4.2,11.0,22,0.00,,,0.00,Rainwise IP-100,2013-12-29 19:12:00,
2013-12-29 11:17:00,64.0,24.0,30.40,ESE,112,4.4,11.0,21,0.00,,,0.00,Rainwise IP-100,2013-12-29 19:17:00,
2013-12-29 11:22:00,64.1,24.0,30.40,ENE,67,4.7,9.0,21,0.00,,,0.00,Rainwise IP-100,2013-12-29 19:22:00,
2013-12-29 11:27:00,64.2,24.0,30.40,ESE,112,3.0,10.0,21,0.00,,,0.00,Rainwise IP-100,2013-12-29 19:27:00,
2013-12-29 11:32:00,64.2,23.0,30.40,SE,135,1.9,11.0,20,0.00,,,0.00,Rainwise IP-100,2013-12-29 19:32:00,
2013-12-29 11:37:00,64.7,24.0,30.39,SE,135,3.3,9.0,21,0.00,,,0.00,Rainwise IP-100,2013-12-29 19:37:00,
2013-12-29 11:42:00,65.1,23.0,30.39,ESE,112,5.4,13.0,20,0.00,,,0.00,Rainwise IP-100,2013-12-29 19:42:00,
2013-12-29 11:47:00,64.9,23.0,30.39,ESE,112,4.4,11.0,20,0.00,,,0.00,Rainwise IP-100,2013-12-29 19:47:00,
2013-12-29 11:52:00,64.6,23.0,30.39,East,90,7.2,13.0,20,0.00,,,0.00,Rainwise IP-100,2013-12-29 19:52:00,
2013-12-29 11:57:00,64.8,23.0,30.39,East,90,7.9,12.0,20,0.00,,,0.00,Rainwise IP-100,2013-12-29 19:57:00,
2013-12-29 12:02:00,64.8,23.0,30.38,ESE,112,7.2,16.0,19,0.00,,,0.00,Rainwise IP-100,2013-12-29 20:02:00,
2013-12-29 12:07:00,64.6,23.0,30.38,East,90,5.4,12.0,19,0.00,,,0.00,Rainwise IP-100,2013-12-29 20:07:00,
2013-12-29 12:12:00,64.4,23.0,30.38,East,90,12.1,12.1,19,0.00,,,0.00,Rainwise IP-100,2013-12-29 20:12:00,
2013-12-29 12:17:00,64.5,23.0,30.37,ENE,67,5.1,14.0,19,0.00,,,0.00,Rainwise IP-100,2013-12-29 20:17:00,
2013-12-29 12:22:00,64.6,23.0,30.37,NNE,22,1.2,12.0,20,0.00,,,0.00,Rainwise IP-100,2013-12-29 20:22:00,
2013-12-29 12:27:00,65.0,23.0,30.37,East,90,3.3,13.0,20,0.00,,,0.00,Rainwise IP-100,2013-12-29 20:27:00,
2013-12-29 12:32:00,65.3,23.0,30.37,SE,135,4.0,11.0,19,0.00,,,0.00,Rainwise IP-100,2013-12-29 20:32:00,
2013-12-29 12:37:00,65.6,23.0,30.36,ESE,112,4.9,12.0,19,0.00,,,0.00,Rainwise IP-100,2013-12-29 20:37:00,
2013-12-29 12:42:00,65.7,23.0,30.36,ENE,67,3.7,11.0,19,0.00,,,0.00,Rainwise IP-100,2013-12-29 20:42:00,
2013-12-29 12:47:00,66.2,23.0,30.36,ENE,67,2.8,9.0,19,0.00,,,0.00,Rainwise IP-100,2013-12-29 20:47:00,
2013-12-29 12:52:00,66.9,24.0,30.36,SE,135,3.3,7.0,19,0.00,,,0.00,Rainwise IP-100,2013-12-29 20:52:00,
2013-12-29 12:57:00,66.8,24.0,30.35,NE,45,2.8,12.0,19,0.00,,,0.00,Rainwise IP-100,2013-12-29 20:57:00,
2013-12-29 13:02:00,66.4,23.0,30.35,ENE,67,9.1,10.0,18,0.00,,,0.00,Rainwise IP-100,2013-12-29 21:02:00,
2013-12-29 13:07:00,65.7,21.0,30.35,East,90,2.6,12.0,18,0.00,,,0.00,Rainwise IP-100,2013-12-29 21:07:00,
2013-12-29 13:12:00,64.9,21.0,30.35,ESE,112,6.1,12.0,18,0.00,,,0.00,Rainwise IP-100,2013-12-29 21:12:00,
2013-12-29 13:17:00,65.7,23.0,30.35,NE,45,5.4,7.0,19,0.00,,,0.00,Rainwise IP-100,2013-12-29 21:17:00,
2013-12-29 13:22:00,66.3,23.0,30.35,ENE,67,0.0,8.0,18,0.00,,,0.00,Rainwise IP-100,2013-12-29 21:22:00,
2013-12-29 13:27:00,66.4,23.0,30.34,NE,45,2.3,8.0,18,0.00,,,0.00,Rainwise IP-100,2013-12-29 21:27:00,
2013-12-29 13:32:00,66.6,23.0,30.35,ENE,67,0.0,6.0,18,0.00,,,0.00,Rainwise IP-100,2013-12-29 21:32:00,
2013-12-29 13:37:00,66.9,23.0,30.34,East,90,0.0,9.0,18,0.00,,,0.00,Rainwise IP-100,2013-12-29 21:37:00,
2013-12-29 13:42:00,66.9,23.0,30.34,ESE,112,2.6,8.0,18,0.00,,,0.00,Rainwise IP-100,2013-12-29 21:42:00,
2013-12-29 13:47:00,67.0,23.0,30.34,NNE,22,5.4,5.4,18,0.00,,,0.00,Rainwise IP-100,2013-12-29 21:47:00,
2013-12-29 13:52:00,67.0,23.0,30.34,NE,45,7.5,9.0,18,0.00,,,0.00,Rainwise IP-100,2013-12-29 21:52:00,
2013-12-29 13:57:00,66.8,21.0,30.34,NE,45,4.7,10.0,17,0.00,,,0.00,Rainwise IP-100,2013-12-29 21:57:00,
2013-12-29 14:02:00,66.8,21.0,30.34,NE,45,3.3,8.0,17,0.00,,,0.00,Rainwise IP-100,2013-12-29 22:02:00,
2013-12-29 14:07:00,66.9,21.0,30.35,NNE,22,7.2,9.0,17,0.00,,,0.00,Rainwise IP-100,2013-12-29 22:07:00,
2013-12-29 14:12:00,66.7,23.0,30.35,NE,45,7.9,12.0,18,0.00,,,0.00,Rainwise IP-100,2013-12-29 22:12:00,
2013-12-29 14:17:00,66.7,23.0,30.35,NE,45,6.3,8.0,18,0.00,,,0.00,Rainwise IP-100,2013-12-29 22:17:00,
2013-12-29 14:22:00,66.9,23.0,30.34,NE,45,5.4,13.0,18,0.00,,,0.00,Rainwise IP-100,2013-12-29 22:22:00,
2013-12-29 14:27:00,66.7,23.0,30.34,NNE,22,5.6,10.0,18,0.00,,,0.00,Rainwise IP-100,2013-12-29 22:27:00,
2013-12-29 14:32:00,66.7,23.0,30.34,NNE,22,5.6,10.0,18,0.00,,,0.00,Rainwise IP-100,2013-12-29 22:32:00,
2013-12-29 14:37:00,66.7,23.0,30.35,East,90,4.9,9.0,18,0.00,,,0.00,Rainwise IP-100,2013-12-29 22:37:00,
2013-12-29 14:42:00,66.8,23.0,30.34,ESE,112,2.3,9.0,18,0.00,,,0.00,Rainwise IP-100,2013-12-29 22:42:00,
2013-12-29 14:47:00,66.9,23.0,30.34,NNE,22,7.7,10.0,18,0.00,,,0.00,Rainwise IP-100,2013-12-29 22:47:00,
2013-12-29 14:52:00,67.2,23.0,30.34,NE,45,7.2,9.0,18,0.00,,,0.00,Rainwise IP-100,2013-12-29 22:52:00,
2013-12-29 14:57:00,67.6,23.0,30.34,NE,45,4.0,8.0,18,0.00,,,0.00,Rainwise IP-100,2013-12-29 22:57:00,
2013-12-29 15:02:00,67.6,23.0,30.34,NNE,22,4.9,8.0,18,0.00,,,0.00,Rainwise IP-100,2013-12-29 23:02:00,
2013-12-29 15:07:00,67.5,23.0,30.34,NE,45,6.5,9.0,17,0.00,,,0.00,Rainwise IP-100,2013-12-29 23:07:00,
2013-12-29 15:12:00,67.5,23.0,30.34,ENE,67,4.0,11.0,18,0.00,,,0.00,Rainwise IP-100,2013-12-29 23:12:00,
2013-12-29 15:17:00,67.3,23.0,30.34,NE,45,7.2,9.0,18,0.00,,,0.00,Rainwise IP-100,2013-12-29 23:17:00,
2013-12-29 15:22:00,67.1,23.0,30.34,NE,45,6.1,11.0,18,0.00,,,0.00,Rainwise IP-100,2013-12-29 23:22:00,
2013-12-29 15:27:00,66.9,23.0,30.34,ENE,67,4.0,9.0,18,0.00,,,0.00,Rainwise IP-100,2013-12-29 23:27:00,
2013-12-29 15:32:00,66.8,23.0,30.33,ENE,67,3.5,9.0,18,0.00,,,0.00,Rainwise IP-100,2013-12-29 23:32:00,
2013-12-29 15:37:00,66.8,23.0,30.33,ENE,67,3.7,8.0,18,0.00,,,0.00,Rainwise IP-100,2013-12-29 23:37:00,
2013-12-29 15:42:00,66.9,23.0,30.33,NNE,22,1.4,9.0,18,0.00,,,0.00,Rainwise IP-100,2013-12-29 23:42:00,
2013-12-29 15:47:00,66.9,23.0,30.34,ENE,67,4.7,11.0,18,0.00,,,0.00,Rainwise IP-100,2013-12-29 23:47:00,
2013-12-29 15:52:00,66.7,23.0,30.33,ENE,67,6.3,9.0,18,0.00,,,0.00,Rainwise IP-100,2013-12-29 23:52:00,
2013-12-29 15:57:00,66.5,23.0,30.33,North,360,1.9,9.0,18,0.00,,,0.00,Rainwise IP-100,2013-12-29 23:57:00,
2013-12-29 16:02:00,66.2,23.0,30.34,NE,45,5.4,7.0,19,0.00,,,0.00,Rainwise IP-100,2013-12-30 00:02:00,
2013-12-29 16:07:00,66.1,23.0,30.34,ENE,67,4.0,9.0,19,0.00,,,0.00,Rainwise IP-100,2013-12-30 00:07:00,
2013-12-29 16:12:00,65.9,23.0,30.34,ENE,67,1.4,7.0,19,0.00,,,0.00,Rainwise IP-100,2013-12-30 00:12:00,
2013-12-29 16:17:00,65.7,23.0,30.34,NE,45,0.0,8.0,19,0.00,,,0.00,Rainwise IP-100,2013-12-30 00:17:00,
2013-12-29 16:22:00,65.5,23.0,30.35,ENE,67,3.7,4.0,19,0.00,,,0.00,Rainwise IP-100,2013-12-30 00:22:00,
2013-12-29 16:27:00,65.4,23.0,30.35,NNW,337,6.5,6.5,19,0.00,,,0.00,Rainwise IP-100,2013-12-30 00:27:00,
2013-12-29 16:32:00,65.0,23.0,30.35,NNE,22,4.0,6.0,19,0.00,,,0.00,Rainwise IP-100,2013-12-30 00:32:00,
2013-12-29 16:37:00,64.5,23.0,30.35,NE,45,3.3,5.0,19,0.00,,,0.00,Rainwise IP-100,2013-12-30 00:37:00,
2013-12-29 16:42:00,64.2,23.0,30.36,NNE,22,3.0,4.0,20,0.00,,,0.00,Rainwise IP-100,2013-12-30 00:42:00,
2013-12-29 16:47:00,63.8,23.0,30.35,NE,45,3.3,5.0,20,0.00,,,0.00,Rainwise IP-100,2013-12-30 00:47:00,
2013-12-29 16:52:00,63.2,23.0,30.35,SE,135,0.0,7.0,21,0.00,,,0.00,Rainwise IP-100,2013-12-30 00:52:00,
2013-12-29 16:57:00,62.7,23.0,30.35,ENE,67,2.6,9.0,21,0.00,,,0.00,Rainwise IP-100,2013-12-30 00:57:00,
2013-12-29 17:02:00,62.3,23.0,30.35,NE,45,3.7,7.0,22,0.00,,,0.00,Rainwise IP-100,2013-12-30 01:02:00,
2013-12-29 17:07:00,61.9,23.0,30.35,NNE,22,4.4,8.0,22,0.00,,,0.00,Rainwise IP-100,2013-12-30 01:07:00,
2013-12-29 17:12:00,61.5,23.0,30.35,NNE,22,5.8,8.0,22,0.00,,,0.00,Rainwise IP-100,2013-12-30 01:12:00,
2013-12-29 17:17:00,61.2,23.0,30.35,NE,45,6.1,10.0,23,0.00,,,0.00,Rainwise IP-100,2013-12-30 01:17:00,
2013-12-29 17:22:00,60.8,23.0,30.35,NE,45,5.8,8.0,23,0.00,,,0.00,Rainwise IP-100,2013-12-30 01:22:00,
2013-12-29 17:27:00,60.4,24.0,30.36,NE,45,3.0,7.0,24,0.00,,,0.00,Rainwise IP-100,2013-12-30 01:27:00,
2013-12-29 17:32:00,60.3,24.0,30.36,North,360,2.8,8.0,25,0.00,,,0.00,Rainwise IP-100,2013-12-30 01:32:00,
2013-12-29 17:35:00,60.2,24.0,30.36,NE,45,4.0,6.0,25,0.00,,,0.00,Rainwise IP-100,2013-12-30 01:35:00,
2013-12-29 17:40:00,60.1,24.0,30.36,NNE,22,4.9,8.0,25,0.00,,,0.00,Rainwise IP-100,2013-12-30 01:40:00,
2013-12-29 17:45:00,59.8,24.0,30.36,NE,45,4.0,6.0,25,0.00,,,0.00,Rainwise IP-100,2013-12-30 01:45:00,
2013-12-29 17:50:00,59.3,24.0,30.36,NE,45,5.8,6.0,26,0.00,,,0.00,Rainwise IP-100,2013-12-30 01:50:00,
2013-12-29 17:55:00,59.0,26.0,30.36,NNE,22,3.0,7.0,27,0.00,,,0.00,Rainwise IP-100,2013-12-30 01:55:00,
2013-12-29 18:00:00,58.9,26.0,30.37,NNW,337,6.3,7.0,27,0.00,,,0.00,Rainwise IP-100,2013-12-30 02:00:00,
2013-12-29 18:05:00,58.8,26.0,30.36,NE,45,6.5,10.0,28,0.00,,,0.00,Rainwise IP-100,2013-12-30 02:05:00,
2013-12-29 18:10:00,58.7,28.0,30.36,NE,45,6.8,8.0,29,0.00,,,0.00,Rainwise IP-100,2013-12-30 02:10:00,
2013-12-29 18:15:00,58.6,28.0,30.36,NE,45,7.2,10.0,29,0.00,,,0.00,Rainwise IP-100,2013-12-30 02:15:00,
2013-12-29 18:20:00,58.5,28.0,30.37,NE,45,6.8,8.0,29,0.00,,,0.00,Rainwise IP-100,2013-12-30 02:20:00,
2013-12-29 18:25:00,58.3,28.0,30.37,ENE,67,4.2,8.0,30,0.00,,,0.00,Rainwise IP-100,2013-12-30 02:25:00,
2013-12-29 18:30:00,58.1,28.0,30.37,ENE,67,2.8,7.0,30,0.00,,,0.00,Rainwise IP-100,2013-12-30 02:30:00,
2013-12-29 18:35:00,57.8,28.0,30.37,NNE,22,0.0,4.0,31,0.00,,,0.00,Rainwise IP-100,2013-12-30 02:35:00,
2013-12-29 18:40:00,57.4,28.0,30.37,NE,45,0.0,4.0,31,0.00,,,0.00,Rainwise IP-100,2013-12-30 02:40:00,
2013-12-29 18:45:00,57.4,28.0,30.36,NE,45,6.3,8.0,31,0.00,,,0.00,Rainwise IP-100,2013-12-30 02:45:00,
2013-12-29 18:50:00,57.6,28.0,30.36,ENE,67,1.9,7.0,31,0.00,,,0.00,Rainwise IP-100,2013-12-30 02:50:00,
2013-12-29 18:55:00,57.5,28.0,30.36,NNE,22,4.4,8.0,31,0.00,,,0.00,Rainwise IP-100,2013-12-30 02:55:00,
2013-12-29 19:00:00,57.2,28.0,30.36,NE,45,3.0,6.0,32,0.00,,,0.00,Rainwise IP-100,2013-12-30 03:00:00,
2013-12-29 19:05:00,57.0,28.0,30.36,NE,45,0.0,5.0,32,0.00,,,0.00,Rainwise IP-100,2013-12-30 03:05:00,
2013-12-29 19:10:00,56.7,28.0,30.36,NE,45,0.0,2.0,33,0.00,,,0.00,Rainwise IP-100,2013-12-30 03:10:00,
2013-12-29 19:15:00,56.2,28.0,30.37,NE,45,0.0,1.0,33,0.00,,,0.00,Rainwise IP-100,2013-12-30 03:15:00,
2013-12-29 19:20:00,55.7,28.0,30.36,NE,45,3.5,4.0,34,0.00,,,0.00,Rainwise IP-100,2013-12-30 03:20:00,
2013-12-29 19:25:00,55.5,29.0,30.36,NE,45,1.9,7.0,35,0.00,,,0.00,Rainwise IP-100,2013-12-30 03:25:00,
2013-12-29 19:30:00,55.7,29.0,30.36,NNE,22,2.1,4.0,35,0.00,,,0.00,Rainwise IP-100,2013-12-30 03:30:00,
2013-12-29 19:35:00,55.7,29.0,30.37,SSE,157,0.0,5.0,35,0.00,,,0.00,Rainwise IP-100,2013-12-30 03:35:00,
2013-12-29 19:40:00,55.5,29.0,30.37,NE,45,3.0,4.0,36,0.00,,,0.00,Rainwise IP-100,2013-12-30 03:40:00,
2013-12-29 19:45:00,55.4,29.0,30.37,NNE,22,4.4,6.0,36,0.00,,,0.00,Rainwise IP-100,2013-12-30 03:45:00,
2013-12-29 19:50:00,55.4,29.0,30.37,NE,45,4.4,7.0,36,0.00,,,0.00,Rainwise IP-100,2013-12-30 03:50:00,
2013-12-29 19:55:00,55.4,29.0,30.37,NE,45,1.4,6.0,37,0.00,,,0.00,Rainwise IP-100,2013-12-30 03:55:00,
2013-12-29 20:00:00,55.3,29.0,30.37,NE,45,4.7,6.0,37,0.00,,,0.00,Rainwise IP-100,2013-12-30 04:00:00,
2013-12-29 20:05:00,55.1,29.0,30.37,ENE,67,3.7,5.0,37,0.00,,,0.00,Rainwise IP-100,2013-12-30 04:05:00,
2013-12-29 20:10:00,54.9,31.0,30.38,NNE,22,3.5,5.0,38,0.00,,,0.00,Rainwise IP-100,2013-12-30 04:10:00,
2013-12-29 20:15:00,54.6,29.0,30.38,ESE,112,0.0,3.0,38,0.00,,,0.00,Rainwise IP-100,2013-12-30 04:15:00,
2013-12-29 20:20:00,54.2,29.0,30.38,NE,45,1.4,1.4,39,0.00,,,0.00,Rainwise IP-100,2013-12-30 04:20:00,
2013-12-29 20:25:00,53.7,29.0,30.39,NE,45,1.6,2.0,40,0.00,,,0.00,Rainwise IP-100,2013-12-30 04:25:00,
2013-12-29 20:30:00,53.5,31.0,30.38,NNW,337,1.6,3.0,41,0.00,,,0.00,Rainwise IP-100,2013-12-30 04:30:00,
2013-12-29 20:35:00,53.4,31.0,30.39,NNW,337,0.0,1.0,42,0.00,,,0.00,Rainwise IP-100,2013-12-30 04:35:00,
2013-12-29 20:40:00,53.2,31.0,30.38,NNE,22,1.4,2.0,42,0.00,,,0.00,Rainwise IP-100,2013-12-30 04:40:00,
2013-12-29 20:45:00,52.9,31.0,30.38,ENE,67,0.0,2.0,43,0.00,,,0.00,Rainwise IP-100,2013-12-30 04:45:00,
2013-12-29 20:50:00,52.9,31.0,30.38,ENE,67,1.9,2.0,43,0.00,,,0.00,Rainwise IP-100,2013-12-30 04:50:00,
2013-12-29 20:55:00,52.9,31.0,30.39,NE,45,2.6,4.0,43,0.00,,,0.00,Rainwise IP-100,2013-12-30 04:55:00,
2013-12-29 21:00:00,53.1,31.0,30.39,ENE,67,0.0,5.0,42,0.00,,,0.00,Rainwise IP-100,2013-12-30 05:00:00,
2013-12-29 21:01:00,53.2,31.0,30.39,ENE,67,1.2,5.0,42,0.00,,,0.00,Rainwise IP-100,2013-12-30 05:01:00,
2013-12-29 21:06:00,53.3,31.0,30.39,ENE,67,2.3,2.3,42,0.00,,,0.00,Rainwise IP-100,2013-12-30 05:06:00,
2013-12-29 21:11:00,53.0,31.0,30.39,NNE,22,2.3,2.3,43,0.00,,,0.00,Rainwise IP-100,2013-12-30 05:11:00,
2013-12-29 21:16:00,52.8,32.0,30.39,NE,45,4.2,4.2,44,0.00,,,0.00,Rainwise IP-100,2013-12-30 05:16:00,
2013-12-29 21:21:00,52.9,32.0,30.39,NE,45,4.0,4.0,44,0.00,,,0.00,Rainwise IP-100,2013-12-30 05:21:00,
2013-12-29 21:26:00,53.1,32.0,30.38,NNE,22,4.0,6.0,44,0.00,,,0.00,Rainwise IP-100,2013-12-30 05:26:00,
2013-12-29 21:31:00,53.2,32.0,30.39,NNE,22,3.7,5.0,44,0.00,,,0.00,Rainwise IP-100,2013-12-30 05:31:00,
2013-12-29 21:36:00,53.3,32.0,30.39,NNE,22,2.8,5.0,44,0.00,,,0.00,Rainwise IP-100,2013-12-30 05:36:00,
2013-12-29 21:41:00,53.5,32.0,30.39,ENE,67,3.0,6.0,44,0.00,,,0.00,Rainwise IP-100,2013-12-30 05:41:00,
2013-12-29 21:46:00,53.7,32.0,30.39,NE,45,3.0,6.0,44,0.00,,,0.00,Rainwise IP-100,2013-12-30 05:46:00,
2013-12-29 21:51:00,53.7,32.0,30.39,ENE,67,0.0,3.0,44,0.00,,,0.00,Rainwise IP-100,2013-12-30 05:51:00,
2013-12-29 21:56:00,53.4,32.0,30.40,NNE,22,1.2,1.2,45,0.00,,,0.00,Rainwise IP-100,2013-12-30 05:56:00,
2013-12-29 22:01:00,52.9,32.0,30.39,ENE,67,2.6,6.0,46,0.00,,,0.00,Rainwise IP-100,2013-12-30 06:01:00,
2013-12-29 22:06:00,52.7,33.0,30.40,NNE,22,4.2,6.0,47,0.00,,,0.00,Rainwise IP-100,2013-12-30 06:06:00,
2013-12-29 22:11:00,52.4,33.0,30.40,NNE,22,5.6,7.0,48,0.00,,,0.00,Rainwise IP-100,2013-12-30 06:11:00,
2013-12-29 22:16:00,52.2,35.0,30.40,NNE,22,8.2,8.2,50,0.00,,,0.00,Rainwise IP-100,2013-12-30 06:16:00,
2013-12-29 22:21:00,52.2,35.0,30.40,NNE,22,3.3,8.0,51,0.00,,,0.00,Rainwise IP-100,2013-12-30 06:21:00,
2013-12-29 22:26:00,52.1,35.0,30.40,North,360,6.3,8.0,51,0.00,,,0.00,Rainwise IP-100,2013-12-30 06:26:00,
2013-12-29 22:31:00,52.1,35.0,30.40,NNE,22,5.6,9.0,51,0.00,,,0.00,Rainwise IP-100,2013-12-30 06:31:00,
2013-12-29 22:36:00,52.4,35.0,30.40,NNE,22,5.1,9.0,50,0.00,,,0.00,Rainwise IP-100,2013-12-30 06:36:00,
2013-12-29 22:41:00,52.6,35.0,30.40,NNE,22,4.9,9.0,49,0.00,,,0.00,Rainwise IP-100,2013-12-30 06:41:00,
2013-12-29 22:46:00,52.6,35.0,30.40,NNE,22,4.4,8.0,49,0.00,,,0.00,Rainwise IP-100,2013-12-30 06:46:00,
2013-12-29 22:51:00,52.5,35.0,30.40,NNE,22,4.7,7.0,49,0.00,,,0.00,Rainwise IP-100,2013-12-30 06:51:00,
2013-12-29 22:56:00,52.3,35.0,30.40,NNW,337,4.4,7.0,50,0.00,,,0.00,Rainwise IP-100,2013-12-30 06:56:00,
2013-12-29 23:01:00,52.1,35.0,30.40,NNE,22,4.9,7.0,51,0.00,,,0.00,Rainwise IP-100,2013-12-30 07:01:00,
2013-12-29 23:06:00,51.9,35.0,30.40,North,360,4.7,6.0,51,0.00,,,0.00,Rainwise IP-100,2013-12-30 07:06:00,
2013-12-29 23:11:00,51.8,35.0,30.40,NNE,22,4.4,5.0,51,0.00,,,0.00,Rainwise IP-100,2013-12-30 07:11:00,
2013-12-29 23:16:00,51.8,35.0,30.41,NNE,22,5.1,7.0,52,0.00,,,0.00,Rainwise IP-100,2013-12-30 07:16:00,
2013-12-29 23:21:00,51.7,36.0,30.40,NNE,22,4.9,6.0,53,0.00,,,0.00,Rainwise IP-100,2013-12-30 07:21:00,
2013-12-29 23:26:00,51.7,36.0,30.40,North,360,4.2,7.0,53,0.00,,,0.00,Rainwise IP-100,2013-12-30 07:26:00,
2013-12-29 23:31:00,51.7,35.0,30.41,NNE,22,4.4,7.0,52,0.00,,,0.00,Rainwise IP-100,2013-12-30 07:31:00,
2013-12-29 23:36:00,51.8,35.0,30.40,NNE,22,5.4,6.0,52,0.00,,,0.00,Rainwise IP-100,2013-12-30 07:36:00,
2013-12-29 23:41:00,51.8,35.0,30.41,NNE,22,3.7,6.0,51,0.00,,,0.00,Rainwise IP-100,2013-12-30 07:41:00,
2013-12-29 23:46:00,51.7,35.0,30.41,NNE,22,5.1,7.0,51,0.00,,,0.00,Rainwise IP-100,2013-12-30 07:46:00,
2013-12-29 23:51:00,51.8,35.0,30.41,NNE,22,5.8,8.0,50,0.00,,,0.00,Rainwise IP-100,2013-12-30 07:51:00,
2013-12-29 23:56:00,51.9,35.0,30.41,NNE,22,4.7,8.0,50,0.00,,,0.00,Rainwise IP-100,2013-12-30 07:56:00,